Theta_e
310 311 311 310 308 307 303 294 283 297 300 290 286 285 288 295 294 296 295 295 294 293 295 293 294 295 299 304 301 296 296 294 291 293 297 300 299 296 295 293 288 289 289 292
309 309 310 309 308 307 301 292 291 298 297 286 287 292 296 297 295 294 294 294 296 295 293 290 294 297 303 304 301 298 296 289 289 289 292 295 295 296 293 291 291 289 291 293
309 309 310 309 308 308 302 294 287 293 293 290 288 288 291 295 304 298 298 296 296 294 292 293 293 296 305 306 306 319 310 290 292 291 293 295 294 297 296 294 290 290 293 297
309 310 310 309 308 307 303 296 290 293 288 290 291 288 291 295 296 299 299 297 296 295 291 293 293 297 300 306 314 307 297 292 292 298 297 297 297 298 297 295 295 294 297 298
309 309 310 309 308 307 299 293 292 294 292 292 289 290 290 294 295 296 295 296 301 299 295 298 295 298 299 301 304 301 296 292 292 296 298 298 297 298 299 299 298 297 298 298
309 309 310 309 308 303 292 294 297 295 292 290 286 288 292 294 296 298 299 299 298 301 303 304 304 303 307 304 301 300 294 292 289 292 294 294 291 298 298 299 300 301 297 304
308 309 309 309 309 304 296 296 297 292 287 292 292 293 294 293 295 294 297 298 295 304 303 303 302 301 304 307 305 303 300 292 290 290 291 286 297 304 303 302 306 306 307 306
308 308 308 308 308 308 298 297 293 293 289 293 293 294 294 294 295 295 296 299 306 304 299 297 296 297 299 305 309 304 301 293 290 291 287 293 303 307 308 304 304 310 308 310
307 307 308 307 308 308 300 296 297 295 287 288 294 293 294 291 292 293 296 303 302 306 296 296 292 293 297 299 304 305 306 300 294 290 288 289 299 308 314 312 299 310 311 310
307 308 308 308 307 308 301 296 303 298 291 294 295 291 291 295 294 292 296 297 297 306 296 293 291 293 301 298 299 301 301 300 296 294 293 297 307 310 313 300 301 310 311 311
307 307 308 308 307 308 303 295 301 298 293 294 297 298 294 294 294 291 296 296 299 300 297 296 295 294 298 300 304 302 301 299 298 297 294 293 310 309 303 307 310 312 314 314
307 307 307 307 307 307 305 294 299 305 296 295 299 299 301 301 300 295 296 298 298 301 297 298 297 298 300 299 298 308 300 305 302 301 298 307 310 308 312 312 310 312 312 314
306 307 307 306 307 307 305 296 295 295 295 294 294 295 300 304 303 304 293 300 302 298 302 302 300 297 301 297 301 304 308 310 303 305 308 309 310 310 312 312 309 310 310 311
305 306 306 306 306 307 306 300 297 298 293 289 291 301 299 303 301 303 303 300 300 301 300 300 299 298 301 300 301 303 308 310 307 305 310 310 311 313 313 311 312 312 312 311
305 306 306 306 306 307 303 299 298 298 292 290 291 297 300 301 300 301 302 300 296 296 298 296 297 301 302 302 304 301 303 305 304 303 310 308 309 312 313 310 310 311 309 309
305 306 307 307 307 304 296 294 298 299 298 294 286 295 297 299 299 299 297 298 296 298 297 299 296 301 306 299 298 303 304 305 310 307 311 310 310 312 312 308 307 308 308 308
305 306 306 307 307 298 293 292 299 304 301 294 289 291 298 299 298 298 296 298 298 298 295 295 294 298 302 298 294 300 303 308 310 309 308 304 307 307 308 308 308 308 307 308
305 305 306 307 307 304 298 300 305 303 295 294 289 291 294 295 294 294 296 295 295 294 294 297 300 301 300 296 300 301 304 306 306 306 307 307 307 307 306 306 306 305 304 304
305 305 306 298 296 292 297 307 308 299 295 291 293 291 290 296 292 295 295 294 290 293 296 299 300 299 295 299 298 300 303 303 305 307 306 306 304 304 305 305 305 304 303 304
305 298 295 292 296 308 304 295 292 293 292 292 289 295 291 294 294 293 294 295 291 287 295 302 298 297 302 301 301 301 304 304 304 302 301 302 303 304 305 305 306 305 304 306
298 296 295 300 305 295 292 290 290 292 290 292 293 294 292 297 293 293 295 291 291 287 291 297 298 296 299 302 303 304 305 306 305 305 305 306 306 307 307 307 308 308 308 307
299 299 301 296 293 289 287 286 290 290 290 293 293 294 294 296 297 294 295 291 291 288 299 297 294 298 299 301 304 305 306 308 309 309 309 309 309 309 309 309 309 309 310 309
299 295 290 288 287 283 285 284 287 288 291 293 293 292 296 295 296 294 294 292 289 298 295 293 296 301 301 301 304 304 306 306 307 307 310 310 309 310 310 309 311 311 310 311
291 292 287 287 287 291 291 291 291 295 296 295 294 294 295 294 294 294 291 293 298 293 290 291 298 300 302 303 304 304 303 304 304 304 306 307 308 309 310 310 310 310 309 309
291 293 287 291 294 297 297 298 295 297 297 294 293 294 295 292 293 294 294 293 290 293 292 296 299 301 300 300 301 302 302 303 303 304 304 306 307 307 307 309 310 310 310 311
295 294 291 294 294 294 295 296 295 298 295 295 294 291 290 289 292 293 292 292 290 294 296 299 300 301 301 301 302 303 304 303 303 303 304 305 305 305 306 307 309 310 310 311
293 293 294 294 293 292 295 293 294 295 294 292 293 291 290 293 292 291 295 293 294 295 298 299 300 300 300 301 301 304 304 304 303 304 304 304 306 305 305 305 307 308 309 310
Wind_Speed
17 19 17 16 18 21 8 4 5 3 2 1 1 4 7 5 5 8 7 5 7 5 6 5 7 9 9 5 7 5 9 8 9 12 5 6 11 11 10 7 6 3 5 9
18 18 17 13 14 14 6 6 5 5 3 1 3 6 5 5 4 5 3 5 6 6 9 5 8 9 10 12 8 7 6 4 8 7 7 1 5 5 7 5 5 9 7 8
17 16 15 11 12 13 5 3 5 4 2 1 1 5 6 5 4 7 6 8 8 5 5 6 6 5 6 7 8 13 9 6 12 18 13 7 6 7 7 9 6 7 9 8
17 18 15 9 10 14 2 2 4 1 4 1 3 1 5 5 5 4 3 3 9 9 8 7 10 11 14 14 1 2 11 11 8 18 11 9 9 9 11 9 7 9 9 12
18 15 12 8 8 11 1 3 3 4 4 4 3 4 4 4 5 3 6 7 7 7 11 14 9 9 8 10 3 4 3 7 10 20 14 13 11 10 10 8 5 4 2 9
18 16 14 10 5 4 2 2 3 2 4 4 1 4 1 7 12 9 13 10 8 10 12 14 12 6 4 6 4 0 2 5 4 17 7 7 6 19 12 6 5 8 9 17
17 18 16 11 4 5 3 3 2 3 6 6 4 7 12 16 12 11 13 13 6 5 11 12 5 5 6 7 5 4 5 2 4 5 6 5 12 2 14 14 5 5 5 6
18 17 15 13 6 7 3 2 1 3 5 8 12 11 7 9 11 12 14 11 7 6 5 3 2 1 3 3 6 0 4 3 3 9 6 4 2 5 4 6 4 3 5 8
17 18 18 15 9 8 3 3 4 3 4 6 12 4 6 7 6 5 5 6 6 4 0 1 6 6 6 4 5 7 7 2 5 1 8 9 4 4 3 2 1 4 2 9
17 17 15 15 12 11 4 3 4 2 4 10 12 8 5 4 3 5 5 9 8 1 1 0 2 4 4 6 12 2 7 5 2 3 4 3 5 7 1 6 5 5 4 5
15 14 16 15 12 13 5 3 5 3 4 12 13 15 13 9 5 4 5 6 3 4 1 2 3 1 1 4 5 12 5 4 1 2 1 3 10 3 5 5 5 9 13 6
14 15 13 11 9 9 5 2 3 3 5 8 13 17 20 19 19 3 3 4 4 3 3 1 2 1 1 2 4 1 4 6 5 3 3 4 5 3 1 3 2 7 12 6
10 15 11 8 7 6 6 3 2 0 4 10 8 14 15 16 22 16 5 3 5 3 4 2 2 3 3 3 2 4 3 6 5 4 5 5 6 6 5 2 7 10 11 10
9 11 7 6 6 9 4 2 3 1 3 5 8 4 10 4 5 18 23 10 5 3 2 2 2 2 2 1 1 4 1 1 6 5 5 4 5 3 4 6 11 13 12 14
8 8 6 8 7 6 2 3 5 5 3 5 8 15 7 7 9 15 16 14 6 3 3 1 4 2 1 2 2 4 4 1 3 7 4 8 3 6 8 13 12 10 13 15
8 6 6 7 9 3 2 3 1 4 4 4 5 6 6 5 5 9 9 8 4 3 1 4 2 1 3 3 2 4 9 9 4 3 2 9 9 9 8 10 14 13 14 12
7 6 8 9 7 2 2 2 1 5 2 2 5 5 5 4 2 2 2 2 2 2 2 3 1 5 6 4 5 16 14 8 7 7 8 10 13 4 7 10 9 12 8 7
6 8 9 9 8 4 4 4 11 7 2 2 3 6 5 0 1 1 2 3 2 2 1 1 4 4 4 4 10 12 10 11 13 11 9 8 6 6 7 7 7 11 8 7
7 9 9 3 1 1 3 3 5 3 1 2 2 3 4 4 1 1 2 3 1 2 4 3 4 4 7 5 8 11 10 5 1 4 8 7 10 6 6 7 8 8 7 6
9 3 2 3 3 8 3 3 2 1 2 1 4 2 5 1 2 2 2 1 3 4 2 2 5 3 3 5 5 5 7 7 5 3 7 8 6 6 6 7 3 2 1 2
2 2 2 3 9 2 2 1 1 2 3 4 4 4 4 1 2 2 2 2 1 5 2 4 3 3 4 7 6 5 6 5 6 5 4 3 2 4 7 9 10 7 6 5
3 3 3 3 3 2 1 3 3 3 3 2 2 4 5 4 2 3 2 2 3 4 1 5 3 2 4 5 5 5 6 6 9 8 8 8 10 8 7 6 6 6 6 7
1 1 3 3 2 5 5 6 3 4 2 3 4 1 1 5 2 3 3 6 4 2 5 4 3 2 3 5 5 6 7 7 7 9 9 9 9 8 7 7 6 7 7 7
3 3 5 2 3 3 2 3 4 5 3 4 4 3 1 1 4 2 6 2 2 5 4 4 1 1 3 2 2 3 5 6 7 7 7 6 6 6 5 5 5 5 6 6
3 2 4 5 5 3 5 4 4 3 3 2 2 1 3 5 5 4 5 6 5 4 3 2 2 1 1 2 4 5 6 6 6 5 4 5 4 4 5 5 5 4 3 3
3 5 2 4 4 5 5 5 5 3 5 1 3 3 4 6 3 6 5 3 3 2 1 1 2 1 1 2 4 5 5 5 5 4 3 4 4 4 5 5 3 4 4 5
1 3 2 4 4 4 3 4 5 5 3 4 3 6 3 3 5 4 3 3 2 1 0 1 2 1 3 4 4 4 4 4 4 3 2 3 4 4 3 4 2 2 2 2
Wind_Direction
315 321 319 327 333 338 355 10 324 9 68 59 221 204 198 243 249 221 246 196 196 200 195 219 214 209 221 170 131 160 208 186 217 211 236 194 180 182 167 182 228 224 168 254
314 315 319 324 330 348 324 316 274 303 128 208 282 300 289 253 240 224 208 226 191 203 200 222 200 213 234 233 154 195 180 217 221 309 309 262 195 170 131 116 91 189 186 256
311 311 314 321 323 329 326 308 318 308 51 200 46 338 271 266 273 242 207 219 221 224 238 238 254 232 254 191 192 214 184 184 192 224 227 171 187 175 175 151 151 171 211 230
307 308 306 312 324 329 282 205 255 226 301 300 342 236 292 282 275 335 286 249 219 200 213 228 233 239 263 275 202 274 152 193 195 225 194 177 198 177 168 177 184 173 227 196
303 307 309 308 326 341 317 307 339 346 288 292 293 192 263 295 327 270 263 202 255 261 226 207 215 205 197 231 32 6 323 237 184 234 204 199 217 222 179 195 167 241 260 248
292 298 303 302 302 66 6 287 268 271 278 305 310 240 357 304 326 266 252 295 325 285 262 264 259 239 212 175 95 347 251 171 137 229 177 164 245 223 217 182 179 171 189 230
288 295 297 293 271 161 157 260 264 275 273 245 246 300 310 293 294 284 278 304 262 240 330 285 215 225 153 192 120 174 274 161 131 248 87 172 238 195 206 207 179 209 277 239
281 286 294 280 266 201 155 221 176 273 274 275 278 268 293 304 295 262 270 265 267 331 325 294 193 48 33 17 146 172 230 129 223 190 173 224 138 11 110 149 171 57 286 280
283 281 284 270 258 258 151 236 188 246 273 241 254 322 289 290 287 298 270 314 299 38 119 260 175 178 163 136 11 53 306 297 134 174 151 189 189 304 27 337 231 358 221 272
285 283 283 273 257 251 159 236 187 272 267 264 264 260 269 286 333 279 295 340 335 333 42 111 193 207 166 145 165 118 317 319 103 260 126 284 15 313 209 130 212 306 26 314
284 280 277 275 269 256 160 237 196 200 257 273 264 263 268 281 258 260 317 316 324 317 58 158 266 122 290 92 128 143 198 303 98 254 131 141 3 343 152 168 292 81 70 36
282 278 275 267 267 266 164 226 247 155 243 277 305 273 253 248 244 290 326 300 261 248 294 263 233 322 314 144 153 340 149 176 173 143 188 267 313 19 5 223 183 97 91 65
302 284 265 252 245 250 183 212 191 1 271 282 252 250 260 235 231 227 217 209 257 307 214 260 280 244 178 177 150 109 125 157 153 114 1 356 0 20 18 318 84 68 78 70
298 297 287 270 281 279 217 190 166 133 268 274 280 283 267 273 204 193 205 227 230 203 163 195 269 245 191 249 126 105 280 327 117 23 123 109 346 341 314 52 69 70 66 66
293 288 281 279 294 292 310 199 200 180 183 301 292 303 261 242 169 179 200 225 258 315 325 206 222 244 155 71 282 50 336 325 186 187 183 138 125 7 273 95 75 73 73 57
297 288 302 303 313 47 13 293 144 178 179 267 296 289 295 339 150 155 184 206 196 207 207 283 317 195 80 62 72 57 311 285 273 145 85 91 120 70 292 98 88 72 61 70
297 307 306 302 305 117 195 246 76 176 155 258 292 288 274 309 93 77 117 156 192 148 172 256 50 23 58 24 26 327 327 10 6 43 93 51 48 84 358 50 62 71 76 60
306 306 302 295 292 291 278 258 225 202 249 217 278 279 318 206 185 199 178 153 83 257 172 33 51 358 68 37 336 342 356 56 56 59 64 98 107 53 32 41 43 53 40 33
312 308 311 33 74 234 251 34 117 140 187 296 253 275 285 354 3 156 32 83 158 288 63 49 89 11 53 4 322 342 352 42 55 43 62 69 71 67 37 47 42 48 20 16
321 16 9 305 223 310 35 298 74 172 251 237 248 260 264 4 0 3 82 148 160 74 306 79 73 66 90 6 331 316 350 7 20 202 29 24 37 24 24 39 45 63 298 277
4 346 273 286 322 46 32 283 207 184 238 198 237 224 280 298 29 277 198 195 95 87 248 95 87 69 358 343 345 350 3 23 43 94 132 107 111 34 21 11 8 354 343 340
275 288 292 313 10 29 349 260 279 224 257 218 200 256 199 270 217 221 5 79 42 82 186 77 69 10 348 337 337 358 10 30 42 38 38 30 33 24 19 9 342 319 316 329
44 335 333 44 294 32 16 342 341 319 313 312 300 318 240 328 37 49 17 59 56 106 49 65 69 354 346 343 354 15 12 23 34 31 33 32 23 19 15 349 341 343 352 358
41 356 4 30 356 11 274 274 260 270 280 319 318 299 337 289 20 342 84 329 60 78 61 77 141 9 342 326 343 21 352 12 23 19 9 10 7 352 348 356 343 345 354 351
25 321 14 5 340 294 263 263 273 263 267 272 256 55 63 2 45 19 30 37 48 41 78 113 139 227 284 348 4 0 359 358 355 351 346 335 338 347 335 351 351 5 340 333
11 8 80 292 299 300 318 330 321 326 326 247 22 27 40 49 54 49 9 42 47 60 83 152 141 88 342 332 338 327 316 316 309 307 290 304 320 327 320 316 353 358 347 335
272 303 263 259 255 278 297 328 310 307 25 29 21 46 8 311 54 50 24 36 113 162 18 147 181 185 328 327 319 316 317 312 321 309 336 295 292 302 324 327 312 353 331 334